• In Belarus
  • List of Countries
  • For 7 days
  • Water Temperature
  • Satellite Maps
  • Weather Map
  • Weather Widgets
  • user-avatar
    Login

    Hourly Weather Snyatyn

    Today, 21 September, Friday

    Time Temperature Precipitation Wind Pressure Humidity
    00:00 +20°C° 0 mm 1 mps 744 mmHg 76%
    01:00 +20°C° 0 mm 1 mps 744 mmHg 79%
    02:00 +14°C° 0 mm 0 mps 744 mmHg 74%
    03:00 +18°C° 0 mm 1 mps 744 mmHg 74%
    04:00 +16°C° 0 mm 1 mps 744 mmHg 79%
    05:00 +16°C° 0 mm 1 mps 744 mmHg 81%
    06:00 +15°C° 0 mm 1 mps 744 mmHg 82%
    07:00 +15°C° 0 mm 1 mps 744 mmHg 84%
    08:00 +16°C° 0 mm 1 mps 744 mmHg 82%
    09:00 +18°C° 0 mm 2 mps 744 mmHg 76%
    10:00 +19°C° 0 mm 2 mps 744 mmHg 76%
    11:00 +21°C° 0 mm 2 mps 744 mmHg 66%
    12:00 +23°C° 0 mm 2 mps 744 mmHg 67%
    13:00 +25°C° 0 mm 2 mps 744 mmHg 65%
    14:00 +25°C° 0 mm 3 mps 743 mmHg 66%
    15:00 +26°C° 0 mm 3 mps 743 mmHg 66%
    16:00 +27°C° 0 mm 3 mps 743 mmHg 61%
    17:00 +27°C° 0 mm 2 mps 743 mmHg 63%
    18:00 +25°C° 0 mm 2 mps 742 mmHg 70%
    19:00 +22°C° 0 mm 3 mps 742 mmHg 74%
    20:00 +21°C° 0 mm 3 mps 742 mmHg 82%
    21:00 +20°C° 0 mm 2 mps 742 mmHg 87%
    22:00 +20°C° 0 mm 2 mps 742 mmHg 88%
    23:00 +19°C° 0 mm 2 mps 742 mmHg 90%

    Tomorrow, 22 September, Saturday

    Time Temperature Precipitation Wind Pressure Humidity
    00:00 +18°C° 0 mm 2 mps 742 mmHg 91%
    01:00 +18°C° 0 mm 2 mps 741 mmHg 89%
    02:00 +17°C° 0 mm 2 mps 741 mmHg 87%
    03:00 +16°C° 0 mm 2 mps 741 mmHg 87%
    04:00 +16°C° 0 mm 2 mps 741 mmHg 82%
    05:00 +16°C° 0 mm 2 mps 741 mmHg 79%
    06:00 +16°C° 0 mm 1 mps 741 mmHg 77%
    07:00 +15°C° 0 mm 0 mps 741 mmHg 74%
    08:00 +18°C° 0 mm 1 mps 741 mmHg 79%
    09:00 +19°C° 0 mm 1 mps 741 mmHg 84%
    10:00 +21°C° 0 mm 1 mps 742 mmHg 77%
    11:00 +22°C° 0 mm 3 mps 742 mmHg 75%
    12:00 +18°C° 0 mm 7 mps 743 mmHg 86%
    13:00 +20°C° 0 mm 6 mps 743 mmHg 82%
    14:00 +20°C° 0 mm 6 mps 743 mmHg 82%
    15:00 +19°C° 0 mm 5 mps 743 mmHg 82%
    16:00 +19°C° 0 mm 5 mps 742 mmHg 83%
    17:00 +15°C° 0 mm 7 mps 743 mmHg 88%
    18:00 +13°C° 1.5 mm 6 mps 743 mmHg 97%
    19:00 +13°C° 1.1 mm 5 mps 743 mmHg 97%
    20:00 +13°C° 1.5 mm 1 mps 743 mmHg 98%
    21:00 +13°C° 0.1 mm 1 mps 743 mmHg 99%
    22:00 +13°C° 1 mm 1 mps 743 mmHg 99%
    23:00 +12°C° 0 mm 3 mps 744 mmHg 95%

    Day after tomorrow, 23 September, Sunday

    Time Temperature Precipitation Wind Pressure Humidity
    00:00 +12°C° 0 mm 3 mps 744 mmHg 94%
    01:00 +12°C° 0 mm 3 mps 744 mmHg 93%
    02:00 +12°C° 0 mm 2 mps 743 mmHg 95%
    03:00 +12°C° 0 mm 2 mps 743 mmHg 97%
    04:00 +10°C° 0 mm 2 mps 744 mmHg 96%
    05:00 +10°C° 0 mm 2 mps 744 mmHg 95%
    06:00 +9°C° 0 mm 2 mps 744 mmHg 97%
    07:00 +10°C° 0 mm 1 mps 744 mmHg 94%
    08:00 +12°C° 0 mm 1 mps 744 mmHg 92%
    09:00 +13°C° 0 mm 2 mps 745 mmHg 87%
    10:00 +14°C° 0 mm 5 mps 745 mmHg 79%
    11:00 +15°C° 0 mm 5 mps 745 mmHg 76%
    12:00 +16°C° 0 mm 5 mps 746 mmHg 73%
    13:00 +16°C° 0 mm 5 mps 745 mmHg 69%
    14:00 +17°C° 0 mm 4 mps 745 mmHg 67%
    15:00 +18°C° 0 mm 3 mps 745 mmHg 66%
    16:00 +18°C° 0 mm 3 mps 745 mmHg 65%
    17:00 +17°C° 0 mm 2 mps 745 mmHg 71%
    18:00 +16°C° 0 mm 1 mps 745 mmHg 79%
    19:00 +15°C° 0 mm 1 mps 745 mmHg 79%
    20:00 +14°C° 0 mm 1 mps 745 mmHg 82%
    21:00 +14°C° 0 mm 1 mps 745 mmHg 86%
    22:00 +13°C° 0 mm 1 mps 744 mmHg 87%
    23:00 +13°C° 0 mm 2 mps 744 mmHg 85%

    24 September, Monday

    Time Temperature Precipitation Wind Pressure Humidity
    00:00 +12°C° 0 mm 2 mps 743 mmHg 91%
    01:00 +10°C° 0 mm 3 mps 741 mmHg 94%
    02:00 +10°C° 0 mm 3 mps 740 mmHg 94%
    03:00 +10°C° 0 mm 3 mps 739 mmHg 94%
    04:00 +10°C° 0 mm 4 mps 738 mmHg 93%
    05:00 +10°C° 0 mm 4 mps 737 mmHg 95%
    06:00 +11°C° 0 mm 4 mps 735 mmHg 92%
    07:00 +12°C° 0 mm 4 mps 734 mmHg 89%
    08:00 +14°C° 0 mm 4 mps 733 mmHg 83%
    09:00 +15°C° 0 mm 5 mps 733 mmHg 81%
    10:00 +19°C° 0 mm 5 mps 732 mmHg 78%
    11:00 +21°C° 0 mm 4 mps 732 mmHg 76%
    12:00 +23°C° 0 mm 6 mps 732 mmHg 73%
    13:00 +23°C° 0 mm 7 mps 731 mmHg 71%
    14:00 +21°C° 0 mm 10 mps 731 mmHg 72%
    15:00 +17°C° 1.6 mm 11 mps 733 mmHg 72%
    16:00 +14°C° 0 mm 11 mps 734 mmHg 72%
    17:00 +12°C° 0 mm 10 mps 735 mmHg 74%
    18:00 +11°C° 0 mm 9 mps 736 mmHg 77%
    19:00 +11°C° 0 mm 8 mps 737 mmHg 78%
    20:00 +10°C° 0 mm 8 mps 737 mmHg 78%
    21:00 +10°C° 0 mm 8 mps 738 mmHg 79%
    22:00 +9°C° 0 mm 8 mps 738 mmHg 79%
    23:00 +9°C° 0 mm 7 mps 739 mmHg 82%

    25 September, Tuesday

    Time Temperature Precipitation Wind Pressure Humidity
    00:00 +8°C° 0 mm 7 mps 740 mmHg 84%
    01:00 +7°C° 0 mm 8 mps 740 mmHg 84%
    02:00 +7°C° 0 mm 8 mps 741 mmHg 86%

    26 September, Wednesday

    Time Temperature Precipitation Wind Pressure Humidity
    Show more